Volver al catálogo

SL-12 R/B(2)

ActivoHEO
NORAD 25074·ROCKET BODY·🇷🇺 Russia

Lanzado Dec 2, 1997 desde Baikonur Cosmodrome

Loading…

Próximos Pases (próximas 24 horas)

TLE

ActualizadoSource: Space-Track

Época: Sep 14, 2026, 07:26 UTC

1 25074U 97076D   26257.31000447 -.00000113  00000-0  00000-0 0  9994
2 25074  14.0300  10.1961 4366107  58.8423  91.3719  1.71946351180739

Sigue SL-12 R/B(2) en tiempo real con AllMySat

Download on the App Store